Location: Melbourne
(37.8666°S, 145.1333°E)
Time: 21:18:02
(UTC+11:00)

Amateur Radio Satellites - All Passes

Search period start: 29 January 2015 20:48
Search period end: 30 January 2015 20:48
Location: Melbourne, 37.8666°S, 145.1333°E

Satellite Date Start Highest point End Downlink Frequencies (MHz)
Time Altitude Azimuth
BRITE-PL 29 Jan 20:58:11 21:00:26 14° 89° (E) 21:02:55 437.365/2234.400
PHONESAT 2.4 29 Jan 21:00:52 21:02:48 14° 36° (NE) 21:04:50 2401.200-2431.200
CANX-2 29 Jan 21:05:31 21:07:48 14° 90° (E) 21:10:17 2200.000
AAUSAT CUBESAT 2 29 Jan 21:19:48 21:20:44 11° 92° (E) 21:21:56 437.432
CUTE 1.7 + AOD 2 29 Jan 21:28:43 21:32:15 24° 86° (E) 21:35:50 437.475
RS-15 29 Jan 21:33:22 21:42:33 22° 203° (SSW) 21:51:19 29.354- 29.394
HO-68 29 Jan 21:39:40 21:46:27 42° 82° (E) 21:53:13 435.675
VERMONT LUNAR 29 Jan 21:39:59 21:43:23 43° 25° (NNE) 21:46:48 437.305
ANTELSAT 29 Jan 21:57:19 21:58:50 12° 115° (ESE) 22:00:34 437.575/2403.000
SEEDS 29 Jan 21:59:14 22:03:26 46° 82° (E) 22:07:36 437.485
TIGRISAT 29 Jan 22:04:31 22:06:40 14° 114° (ESE) 22:09:02 435.000
YUBILEINY 29 Jan 22:10:25 22:15:57 18° 260° (W) 22:20:53 435.215
CUBEBUG 2 29 Jan 22:10:49 22:13:15 15° 89° (E) 22:15:55 437.445
NANOSAT C BR1 29 Jan 22:18:19 22:19:49 12° 114° (ESE) 22:21:32 145.865
ZACube-1 29 Jan 22:19:58 22:21:46 13° 90° (E) 22:23:50 437.345
DX 1 29 Jan 22:25:37 22:28:26 17° 88° (E) 22:31:23 434.975-435.025
COMPASS 1 29 Jan 22:26:02 22:30:23 79° 79° (E) 22:34:41 437.405
FUNcube-1 29 Jan 22:31:09 22:33:58 17° 88° (E) 22:36:57 145.935
QB50P2 29 Jan 22:31:10 22:33:54 17° 112° (ESE) 22:36:47 145.880/145.840
GOMX 1 29 Jan 22:31:13 22:35:32 71° 256° (WSW) 22:40:01 467.674
CINEMA 3 29 Jan 22:32:35 22:36:52 45° 81° (E) 22:41:17 145.822/145.860
BRITE-PL 29 Jan 22:35:12 22:39:14 42° 254° (WSW) 22:43:23 437.365/2234.400
PHONESAT 2.4 29 Jan 22:37:19 22:40:58 61° 22° (NNE) 22:44:38 2401.200-2431.200
CANX-2 29 Jan 22:39:51 22:44:03 45° 254° (WSW) 22:48:12 2200.000
QB50P1 29 Jan 22:40:05 22:43:16 21° 111° (ESE) 22:46:33 145.935-145.965
DOVE 4 29 Jan 22:44:16 22:48:37 72° 256° (WSW) 22:53:09 437.250
DELFI C3 29 Jan 22:49:03 22:53:07 46° 81° (E) 22:57:08 145.870
UWE-3 29 Jan 22:50:04 22:54:07 34° 83° (E) 22:58:15 435.000/436.395/437.385
AISAT 29 Jan 22:50:20 22:51:44 12° 91° (E) 22:53:25 437.250
AAUSAT CUBESAT 2 29 Jan 22:52:36 22:56:51 57° 255° (WSW) 23:01:02 437.432
BUGSAT 1 29 Jan 22:52:55 22:56:10 22° 110° (ESE) 22:59:31 437.445
POLYITAN 1 29 Jan 22:54:07 22:57:50 30° 109° (ESE) 23:01:38 437.675
UNISAT 6 29 Jan 22:55:01 22:59:11 52° 106° (ESE) 23:03:27 437.425
CUTE 1.7 + AOD 2 29 Jan 23:04:26 23:08:11 27° 251° (WSW) 23:11:49 437.475
Oscar 11 29 Jan 23:04:31 23:08:59 88° 78° (ENE) 23:13:23 145.826/435.025
POPSAT HIP 1 29 Jan 23:13:48 23:17:56 50° 106° (ESE) 23:22:07 437.405
DUCHIFAT 1 29 Jan 23:16:32 23:20:41 54° 105° (ESE) 23:24:54 145.980
VELOX 1 29 Jan 23:16:56 23:20:29 23° 86° (E) 23:24:05 145.980
VERMONT LUNAR 29 Jan 23:17:56 23:21:29 64° 190° (S) 23:25:02 437.305
HO-68 29 Jan 23:27:34 23:34:04 36° 245° (WSW) 23:40:25 435.675
CUBEBUG 1 29 Jan 23:27:40 23:29:01 11° 91° (E) 23:30:38 437.445
ANTELSAT 29 Jan 23:30:57 23:35:11 58° 280° (W) 23:39:30 437.575/2403.000
SO-50 29 Jan 23:31:30 23:36:17 83° 63° (ENE) 23:40:56 436.795
SEEDS 29 Jan 23:36:21 23:38:55 15° 247° (WSW) 23:41:18 437.485
50 SAT 29 Jan 23:36:30 23:40:19 36° 83° (E) 23:44:09 437.505
TIGRISAT 29 Jan 23:38:56 23:43:04 48° 279° (W) 23:47:17 435.000
UKube-1 29 Jan 23:39:55 23:44:18 69° 255° (WSW) 23:48:37 .
AIST 2 29 Jan 23:43:18 23:43:20 10° 139° (SE) 23:43:33 435.215
BEESAT 2 29 Jan 23:45:51 23:49:00 22° 130° (SE) 23:52:12 435.950
CUBEBUG 2 29 Jan 23:45:58 23:50:14 46° 254° (WSW) 23:54:35 437.445
NANOSAT C BR1 29 Jan 23:51:02 23:55:15 58° 280° (W) 23:59:30 145.865
RS-15 29 Jan 23:53:33 00:01:20 19° 167° (SSE) 00:09:08 29.354- 29.394
ZACube-1 29 Jan 23:54:12 23:58:31 53° 255° (WSW) 00:02:53 437.345
HUMSAT D 29 Jan 23:58:21 00:02:41 88° 256° (WSW) 00:07:00 437.325/437.525
BEESAT 3 29 Jan 23:59:47 00:03:25 34° 127° (SE) 00:07:06 437.485
DX 1 30 Jan 00:00:47 00:04:54 38° 252° (WSW) 00:08:55 434.975-435.025
QB50P2 30 Jan 00:05:33 00:09:33 38° 278° (W) 00:13:35 145.880/145.840
FUNcube-1 30 Jan 00:06:22 00:10:31 39° 253° (WSW) 00:14:40 145.935
CINEMA 3 30 Jan 00:11:02 00:13:49 16° 248° (WSW) 00:16:27 145.822/145.860
QB50P1 30 Jan 00:15:12 00:19:01 30° 276° (W) 00:22:48 145.935-145.965
PHONESAT 2.4 30 Jan 00:15:58 00:19:37 58° 186° (S) 00:23:16 2401.200-2431.200
GONETS M04 30 Jan 00:18:16 00:24:42 23° 115° (ESE) 00:31:28
AISAT 30 Jan 00:24:26 00:28:50 58° 254° (WSW) 00:33:12 437.250
DELFI C3 30 Jan 00:25:46 00:27:59 14° 247° (WSW) 00:30:02 145.870
ESTCUBE 1 30 Jan 00:26:41 00:31:15 63° 80° (E) 00:35:45 437.505/2401.250
UWE-3 30 Jan 00:27:09 00:30:30 21° 249° (WSW) 00:33:45 435.000/436.395/437.385
BUGSAT 1 30 Jan 00:27:51 00:31:34 28° 276° (W) 00:35:13 437.445
POLYITAN 1 30 Jan 00:30:35 00:33:51 21° 273° (W) 00:37:02 437.675
UNISAT 6 30 Jan 00:34:43 00:36:26 12° 269° (W) 00:37:53 437.425
SPROUT 30 Jan 00:47:52 00:51:15 22° 86° (E) 00:54:43 437.525
AIST 1 30 Jan 00:48:20 00:52:45 66° 261° (W) 00:57:14
POPSAT HIP 1 30 Jan 00:52:18 00:54:13 12° 270° (W) 00:55:53 437.405
VELOX 1 30 Jan 00:53:12 00:57:06 29° 250° (WSW) 01:00:54 145.980
DUCHIFAT 1 30 Jan 00:55:23 00:56:58 11° 269° (W) 00:58:17 145.980
VERMONT LUNAR 30 Jan 00:56:18 00:59:50 58° 173° (S) 01:03:21 437.305
CUBEBUG 1 30 Jan 01:01:31 01:05:51 56° 254° (WSW) 01:10:07 437.445
50 SAT 30 Jan 01:12:30 01:15:12 17° 248° (WSW) 01:17:46 437.505
SO-50 30 Jan 01:14:59 01:17:26 14° 222° (SW) 01:19:42 436.795
AIST 2 30 Jan 01:18:30 01:22:37 88° 123° (ESE) 01:26:45 435.215
BEESAT 2 30 Jan 01:23:43 01:27:15 30° 294° (WNW) 01:30:45 435.950
TISAT 1 30 Jan 01:24:45 01:28:58 59° 80° (E) 01:33:09 437.305
BEESAT 3 30 Jan 01:38:32 01:41:21 18° 292° (WNW) 01:44:03 437.485
PCSat 30 Jan 01:43:34 01:47:41 22° 132° (SE) 01:51:54 145.827
Oscar 19 30 Jan 01:44:59 01:50:00 57° 106° (ESE) 01:55:07 437.125/150
SWISSCUBE 30 Jan 01:48:00 01:50:59 17° 89° (E) 01:54:10 437.505
PHONESAT 2.4 30 Jan 01:54:45 01:58:26 68° 170° (S) 02:02:05 2401.200-2431.200
ITAMSAT 1 30 Jan 02:01:40 02:06:07 30° 111° (ESE) 02:10:41 435.822/435.867
BEESAT 30 Jan 02:03:14 02:06:58 22° 87° (E) 02:10:46 436.000
ESTCUBE 1 30 Jan 02:05:37 02:07:40 12° 245° (WSW) 02:09:28 437.505/2401.250
ITUPSAT 1 30 Jan 02:06:59 02:10:52 24° 86° (E) 02:14:48 437.325
RS-15 30 Jan 02:07:02 02:18:16 45° 136° (SE) 02:29:03 29.354- 29.394
GONETS M04 30 Jan 02:13:41 02:22:36 75° 274° (W) 02:31:23
SPROUT 30 Jan 02:23:37 02:27:23 28° 251° (WSW) 02:31:03 437.525
VERMONT LUNAR 30 Jan 02:34:31 02:37:59 54° 336° (NNW) 02:41:27 437.305
AO-7 30 Jan 02:41:22 02:46:11 18° 127° (SE) 02:51:25 29.400- 29.500
Gurwin Techsat 1B 30 Jan 02:57:34 03:02:52 67° 105° (ESE) 03:08:15 435.225
TISAT 1 30 Jan 03:02:46 03:04:21 12° 245° (WSW) 03:05:41 437.305
HORYU 2 30 Jan 03:10:56 03:14:35 26° 111° (ESE) 03:18:22 437.375
JAS-2 30 Jan 03:21:05 03:24:20 14° 124° (SE) 03:28:06 435.910
SWISSCUBE 30 Jan 03:24:31 03:29:11 47° 253° (WSW) 03:33:46 437.505
PCSat 30 Jan 03:26:10 03:31:30 54° 293° (WNW) 03:36:45 145.827
Oscar 19 30 Jan 03:26:45 03:29:50 15° 270° (W) 03:32:40 437.125/150
PHONESAT 2.4 30 Jan 03:33:30 03:36:56 38° 333° (NNW) 03:40:20 2401.200-2431.200
DANDE 30 Jan 03:39:25 03:43:02 21° 104° (ESE) 03:47:38 436.750
BEESAT 30 Jan 03:40:30 03:44:55 35° 250° (WSW) 03:49:16 436.000
ITAMSAT 1 30 Jan 03:40:52 03:45:34 32° 276° (W) 03:50:14 435.822/435.867
ITUPSAT 1 30 Jan 03:44:27 03:48:50 33° 250° (WSW) 03:53:06 437.325
STARS 30 Jan 03:54:10 03:58:25 42° 81° (E) 04:02:38 437.465
KKS-1 30 Jan 04:00:25 04:04:58 79° 76° (ENE) 04:09:27 437.445
CUSAT 1 30 Jan 04:07:08 04:11:57 49° 101° (E) 04:18:19 437.405
VERMONT LUNAR 30 Jan 04:14:28 04:15:39 11° 323° (NW) 04:16:44 437.305
GONETS M04 30 Jan 04:14:42 04:18:07 12° 257° (WSW) 04:20:44
RS-15 30 Jan 04:19:46 04:31:10 56° 292° (WNW) 04:41:51 29.354- 29.394
M-CUBED/EXP-1 PRIME 30 Jan 04:21:00 04:25:36 39° 79° (ENE) 04:30:02 437.505
AO-7 30 Jan 04:29:36 04:37:53 82° 109° (ESE) 04:46:17 29.400- 29.500
Gurwin Techsat 1B 30 Jan 04:40:39 04:43:27 14° 269° (W) 04:45:56 435.225
HORYU 2 30 Jan 04:47:24 04:51:13 27° 275° (W) 04:55:01 437.375
O/OREOS (USA 219) 30 Jan 04:52:10 04:56:27 40° 75° (ENE) 05:00:47 437.305
AUBIESAT-1 30 Jan 04:53:57 04:58:54 79° 73° (ENE) 05:03:36 437.475
JAS-2 30 Jan 05:00:44 05:08:02 68° 107° (ESE) 05:15:56 435.910
DANDE 30 Jan 05:21:49 05:26:25 42° 277° (W) 05:32:23 436.750
STARS 30 Jan 05:31:38 05:34:36 17° 247° (WSW) 05:37:23 437.465
MOZHAYETS 4 30 Jan 05:40:07 05:44:28 36° 83° (E) 05:48:47
Cubesat XI-IV 30 Jan 05:45:29 05:49:29 22° 114° (ESE) 05:53:38 437.490
CUSAT 1 30 Jan 05:51:04 05:54:57 20° 274° (W) 05:59:17 437.405
M-CUBED/EXP-1 PRIME 30 Jan 05:56:20 06:00:18 24° 243° (WSW) 06:04:03 437.505
CUTE-I 30 Jan 06:04:37 06:09:18 32° 111° (ESE) 06:14:07 437.470
AO-7 30 Jan 06:26:00 06:31:43 19° 270° (W) 06:36:59 29.400- 29.500
AUBIESAT-1 30 Jan 06:30:52 06:33:08 13° 238° (WSW) 06:35:09 437.475
O/OREOS (USA 219) 30 Jan 06:32:42 06:36:06 19° 237° (WSW) 06:39:22 437.305
JAS-2 30 Jan 06:47:57 06:53:46 23° 268° (W) 06:59:35 435.910
YUBILEINY 30 Jan 07:16:37 07:22:06 19° 99° (E) 07:28:05 435.215
MOZHAYETS 4 30 Jan 07:17:53 07:21:30 21° 248° (WSW) 07:24:57
Cubesat XI-IV 30 Jan 07:24:07 07:29:17 46° 279° (W) 07:34:31 437.490
PRISM 30 Jan 07:31:00 07:35:12 55° 80° (E) 07:39:19 437.425
CUBESAT XI-V 30 Jan 07:33:04 07:37:32 41° 83° (E) 07:41:56 437.345
JUGNU 30 Jan 07:35:08 07:37:34 13° 3° (N) 07:40:01 437.505
STRAND 1 30 Jan 07:44:27 07:49:12 37° 83° (E) 07:53:58 437.568
CUTE-I 30 Jan 07:44:38 07:49:23 30° 275° (W) 07:54:06 437.470
SO-50 30 Jan 08:05:05 08:09:18 42° 126° (SE) 08:13:29 436.795
HO-68 30 Jan 08:07:04 08:12:48 27° 118° (ESE) 08:18:45 435.675
BRITE-PL 30 Jan 08:07:44 08:10:33 16° 111° (ESE) 08:13:28 437.365/2234.400
SRMSAT 30 Jan 08:16:32 08:18:13 11° 8° (N) 08:19:58 437.500
CUTE 1.7 + AOD 2 30 Jan 08:21:17 08:23:36 15° 113° (ESE) 08:26:06 437.475
SEEDS 30 Jan 08:50:14 08:53:44 26° 109° (ESE) 08:57:21 437.485
PRISM 30 Jan 09:08:28 09:10:18 12° 245° (WSW) 09:11:54 437.425
YUBILEINY 30 Jan 09:09:09 09:18:01 80° 263° (W) 09:26:58 435.215
CUBESAT XI-V 30 Jan 09:11:24 09:14:42 19° 247° (WSW) 09:17:50 437.345
COMPASS 1 30 Jan 09:15:51 09:19:48 42° 106° (ESE) 09:23:52 437.405
DX 1 30 Jan 09:20:44 09:22:44 13° 115° (ESE) 09:24:58 434.975-435.025
JUGNU 30 Jan 09:24:00 09:25:45 11° 353° (N) 09:27:25 437.505
STRAND 1 30 Jan 09:24:04 09:28:14 24° 247° (WSW) 09:32:15 437.568
FUNcube-1 30 Jan 09:27:51 09:28:40 11° 114° (ESE) 09:29:45 145.935
CANX-2 30 Jan 09:30:45 09:35:01 80° 281° (W) 09:39:21 2200.000
CINEMA 3 30 Jan 09:33:21 09:37:09 32° 108° (ESE) 09:40:59 145.822/145.860
DELFI C3 30 Jan 09:36:09 09:39:23 24° 110° (ESE) 09:42:46 145.870
GOMX 1 30 Jan 09:37:41 09:42:20 81° 282° (WNW) 09:46:45 467.674
AAUSAT CUBESAT 2 30 Jan 09:41:40 09:45:51 75° 103° (ESE) 09:50:07 437.432
BRITE-PL 30 Jan 09:44:10 09:48:52 46° 279° (W) 09:53:15 437.365/2234.400
SO-50 30 Jan 09:46:33 09:49:32 17° 291° (WNW) 09:52:21 436.795
UWE-3 30 Jan 09:46:34 09:49:45 22° 110° (ESE) 09:53:04 435.000/436.395/437.385
DOVE 4 30 Jan 09:48:22 09:52:52 87° 283° (WNW) 09:57:12 437.250
HO-68 30 Jan 09:53:03 10:00:08 57° 281° (W) 10:07:16 435.675
CUTE 1.7 + AOD 2 30 Jan 09:55:06 09:59:11 45° 278° (W) 10:03:21 437.475
Oscar 11 30 Jan 09:57:26 10:01:39 54° 106° (ESE) 10:05:58 145.826/435.025
SRMSAT 30 Jan 10:04:00 10:06:33 13° 358° (N) 10:09:05 437.500
ISS 30 Jan 10:13:04 10:16:08 36° 45° (NE) 10:19:15 145.825
VELOX 1 30 Jan 10:13:43 10:16:44 18° 113° (ESE) 10:19:54 145.980
50 SAT 30 Jan 10:23:17 10:26:00 18° 111° (ESE) 10:28:52 437.505
SEEDS 30 Jan 10:26:04 10:29:33 24° 274° (W) 10:32:59 437.485
UKube-1 30 Jan 10:32:53 10:37:16 80° 104° (ESE) 10:41:42 .
CUBEBUG 2 30 Jan 10:42:37 10:46:50 67° 281° (W) 10:51:02 437.445
ZACube-1 30 Jan 10:48:32 10:52:44 84° 283° (WNW) 10:56:58 437.345
HUMSAT D 30 Jan 10:48:48 10:52:47 50° 106° (ESE) 10:56:52 437.325/437.525
UNISAT 6 30 Jan 10:50:18 10:52:34 14° 90° (E) 10:55:05 437.425
COMPASS 1 30 Jan 10:53:23 10:55:49 14° 270° (W) 10:58:04 437.405
DX 1 30 Jan 10:54:15 10:58:35 55° 280° (W) 11:02:57 434.975-435.025
AIST 1 30 Jan 10:58:08 11:01:46 25° 106° (ESE) 11:05:24
FUNcube-1 30 Jan 11:00:26 11:04:35 61° 281° (W) 11:08:47 145.935
DELFI C3 30 Jan 11:11:09 11:14:34 25° 275° (W) 11:17:58 145.870
CINEMA 3 30 Jan 11:11:27 11:14:31 18° 273° (W) 11:17:25 145.822/145.860
YUBILEINY 30 Jan 11:11:37 11:16:37 15° 240° (WSW) 11:21:01 435.215
AISAT 30 Jan 11:20:24 11:24:55 81° 281° (W) 11:29:28 437.250
UWE-3 30 Jan 11:22:36 11:26:14 27° 275° (W) 11:29:49 435.000/436.395/437.385
ESTCUBE 1 30 Jan 11:24:34 11:28:57 46° 107° (ESE) 11:33:24 437.505/2401.250
ANTELSAT 30 Jan 11:24:47 11:28:59 33° 83° (E) 11:33:14 437.575/2403.000
TIGRISAT 30 Jan 11:32:13 11:36:31 39° 83° (E) 11:40:54 435.000
Oscar 11 30 Jan 11:36:29 11:38:16 12° 269° (W) 11:39:49 145.826/435.025
NANOSAT C BR1 30 Jan 11:38:37 11:42:09 25° 85° (E) 11:45:44 145.865
SPROUT 30 Jan 11:41:31 11:43:57 15° 113° (ESE) 11:46:34 437.525
VELOX 1 30 Jan 11:48:50 11:53:04 39° 278° (W) 11:57:18 145.980
ISS 30 Jan 11:49:53 11:52:43 25° 209° (SSW) 11:55:33 145.825
QB50P2 30 Jan 11:52:49 11:56:49 38° 82° (E) 12:00:50 145.880/145.840
CUBEBUG 1 30 Jan 11:55:35 12:00:04 85° 281° (W) 12:04:35 437.445
50 SAT 30 Jan 11:57:23 12:00:57 30° 276° (W) 12:04:31 437.505
QB50P1 30 Jan 12:01:54 12:06:03 48° 81° (E) 12:10:12 145.935-145.965
BUGSAT 1 30 Jan 12:11:42 12:15:39 45° 81° (E) 12:19:34 437.445
TISAT 1 30 Jan 12:15:36 12:19:29 35° 108° (ESE) 12:23:25 437.305
POLYITAN 1 30 Jan 12:16:51 12:21:11 75° 77° (ENE) 12:25:27 437.675
UNISAT 6 30 Jan 12:25:12 12:29:44 53° 254° (WSW) 12:34:17 437.425
HUMSAT D 30 Jan 12:27:31 12:29:00 11° 269° (W) 12:30:14 437.325/437.525
AIST 1 30 Jan 12:35:49 12:39:22 23° 269° (W) 12:42:46
POPSAT HIP 1 30 Jan 12:36:43 12:40:59 65° 255° (WSW) 12:45:12 437.405
DUCHIFAT 1 30 Jan 12:39:08 12:43:23 61° 255° (WSW) 12:47:35 145.980
SWISSCUBE 30 Jan 12:53:22 12:56:23 17° 114° (ESE) 12:59:35 437.505
ANTELSAT 30 Jan 13:01:57 13:05:37 23° 249° (WSW) 13:09:12 437.575/2403.000
ESTCUBE 1 30 Jan 13:03:18 13:06:09 15° 271° (W) 13:08:48 437.505/2401.250
BEESAT 30 Jan 13:08:22 13:12:00 22° 112° (ESE) 13:15:47 436.000
TIGRISAT 30 Jan 13:09:41 13:13:03 20° 248° (WSW) 13:16:18 435.000
ITUPSAT 1 30 Jan 13:12:23 13:16:10 24° 112° (ESE) 13:20:07 437.325
NANOSAT C BR1 30 Jan 13:14:26 13:17:59 25° 250° (WSW) 13:21:24 145.865
SPROUT 30 Jan 13:15:32 13:19:43 45° 279° (W) 13:23:55 437.525
GONETS M04 30 Jan 13:17:39 13:24:22 27° 96° (E) 13:31:28
QB50P2 30 Jan 13:29:36 13:32:29 17° 248° (WSW) 13:35:13 145.880/145.840
QB50P1 30 Jan 13:39:17 13:41:35 14° 247° (WSW) 13:43:43 145.935-145.965
BUGSAT 1 30 Jan 13:48:46 13:50:49 13° 247° (WSW) 13:52:40 437.445
TISAT 1 30 Jan 13:52:27 13:55:27 18° 272° (W) 13:58:19 437.305
Oscar 19 30 Jan 13:59:02 14:03:09 24° 87° (E) 14:07:22 437.125/150
ITAMSAT 1 30 Jan 14:18:37 14:19:56 11° 92° (E) 14:21:39 435.822/435.867
SWISSCUBE 30 Jan 14:29:11 14:33:54 50° 279° (W) 14:38:39 437.505
BEESAT 30 Jan 14:45:10 14:49:39 37° 277° (W) 14:54:09 436.000
ITUPSAT 1 30 Jan 14:49:29 14:53:55 34° 277° (W) 14:58:22 437.325
STARS 30 Jan 14:49:48 14:53:39 30° 109° (ESE) 14:57:34 437.465
KKS-1 30 Jan 14:56:48 15:01:11 56° 105° (ESE) 15:05:38 437.445
O/OREOS (USA 219) 30 Jan 15:03:45 15:08:14 57° 114° (ESE) 15:12:40 437.305
M-CUBED/EXP-1 PRIME 30 Jan 15:08:26 15:12:13 35° 114° (ESE) 15:16:23 437.505
GONETS M04 30 Jan 15:11:58 15:20:38 61° 258° (WSW) 15:29:26
AIST 2 30 Jan 15:15:42 15:19:10 28° 66° (ENE) 15:22:42 435.215
Gurwin Techsat 1B 30 Jan 15:16:06 15:20:48 31° 85° (E) 15:25:33 435.225
BEESAT 2 30 Jan 15:16:21 15:20:21 77° 60° (ENE) 15:24:21 435.950
BEESAT 3 30 Jan 15:29:54 15:33:52 64° 238° (WSW) 15:37:49 437.485
Oscar 19 30 Jan 15:37:47 15:42:38 38° 251° (WSW) 15:47:25 437.125/150
AUBIESAT-1 30 Jan 15:40:45 15:44:52 75° 110° (ESE) 15:49:24 437.475
ITAMSAT 1 30 Jan 15:54:54 16:00:09 77° 254° (WSW) 16:05:21 435.822/435.867
PCSat 30 Jan 16:23:45 16:28:02 25° 72° (ENE) 16:32:29 145.827
STARS 30 Jan 16:26:40 16:30:11 22° 274° (W) 16:33:36 437.465
RS-15 30 Jan 16:28:54 16:38:36 31° 75° (ENE) 16:48:51 29.354- 29.394
AO-7 30 Jan 16:33:57 16:40:59 30° 85° (E) 16:48:12 29.400- 29.500
KKS-1 30 Jan 16:36:25 16:38:17 12° 269° (W) 16:39:54 437.445
HORYU 2 30 Jan 16:39:48 16:44:23 67° 79° (ENE) 16:48:55 437.375
MOZHAYETS 4 30 Jan 16:40:36 16:44:32 28° 110° (ESE) 16:48:35
ISS 30 Jan 16:42:35 16:45:28 27° 150° (SSE) 16:48:22 145.825
M-CUBED/EXP-1 PRIME 30 Jan 16:44:21 16:47:23 19° 275° (W) 16:50:28 437.505
O/OREOS (USA 219) 30 Jan 16:45:27 16:47:11 12° 279° (W) 16:48:39 437.305
AIST 2 30 Jan 16:54:22 16:57:46 24° 230° (SW) 17:01:08 435.215
DANDE 30 Jan 16:54:47 16:56:21 14° 85° (E) 16:57:57 436.750
Gurwin Techsat 1B 30 Jan 16:56:02 17:00:45 31° 249° (WSW) 17:05:21 435.225
BEESAT 2 30 Jan 16:57:48 16:59:07 11° 222° (SW) 17:00:16 435.950
GONETS M04 30 Jan 17:18:36 17:19:55 10° 235° (SW) 17:20:24
CUSAT 1 30 Jan 17:18:53 17:21:34 52° 82° (E) 17:24:11 437.405
JAS-2 30 Jan 17:58:23 18:05:45 71° 79° (E) 18:12:12 435.910
PCSat 30 Jan 18:06:07 18:11:15 41° 236° (SW) 18:16:24 145.827
MOZHAYETS 4 30 Jan 18:17:48 18:21:45 26° 274° (W) 18:25:39
HORYU 2 30 Jan 18:18:47 18:20:33 12° 244° (WSW) 18:22:04 437.375
ISS 30 Jan 18:18:59 18:22:00 32° 314° (NW) 18:24:59 145.825
PRISM 30 Jan 18:19:56 18:23:43 33° 109° (ESE) 18:27:37 437.425
CUTE-I 30 Jan 18:24:58 18:27:34 14° 91° (E) 18:30:28 437.470
AO-7 30 Jan 18:26:01 18:34:12 57° 247° (WSW) 18:42:17 29.400- 29.500
CUBESAT XI-V 30 Jan 18:34:46 18:39:02 34° 109° (ESE) 18:43:22 437.345
RS-15 30 Jan 18:37:59 18:50:18 74° 236° (SW) 19:02:37 29.354- 29.394
DANDE 30 Jan 18:39:17 18:39:45 10° 252° (WSW) 18:40:04 436.750
STRAND 1 30 Jan 18:58:26 19:03:20 46° 108° (ESE) 19:08:20 437.568
YUBILEINY 30 Jan 19:21:57 19:30:22 48° 105° (ESE) 19:38:44 435.215
Cubesat XI-IV 30 Jan 19:43:03 19:48:28 83° 78° (ENE) 19:53:50 437.490
JAS-2 30 Jan 19:44:41 19:50:01 21° 240° (WSW) 19:54:43 435.910
PRISM 30 Jan 19:56:14 19:59:21 19° 273° (W) 20:02:23 437.425
CUTE-I 30 Jan 20:02:53 20:08:14 66° 254° (WSW) 20:13:30 437.470
CUBESAT XI-V 30 Jan 20:12:47 20:16:34 23° 273° (W) 20:20:16 437.345
AO-7 30 Jan 20:22:38 20:25:24 12° 228° (SW) 20:27:38 29.400- 29.500
PHONESAT 2.4 30 Jan 20:25:33 20:26:58 12° 37° (NE) 20:28:29 2401.200-2431.200
STRAND 1 30 Jan 20:39:01 20:42:49 20° 272° (W) 20:46:28 437.568
